"read_dt","SO2 (ppb)","flags","PMT voltage (V)","lamp voltage (V)","lamp intensity (Hz)","internal temp (C)","react chamber temp (C)","sample flow (l/min)","pres (mmHg)","SO2 bkg (ppb)","SO2 coefficient"
2017-04-12 00:00:00,1581E-3,5C000400,-0724,0836,11974,030.0,045.5,0.217,754.2,01.17,0.508
2017-04-12 00:01:00,1604E-3,5C000400,-0724,0836,12113,030.0,045.5,0.217,754.2,01.17,0.508
2017-04-12 00:02:00,1653E-3,5C000400,-0724,0836,12034,030.0,045.5,0.217,754.2,01.17,0.508
2017-04-12 00:03:00,1627E-3,5C000400,-0724,0837,12012,030.0,045.5,0.217,754.2,01.17,0.508
2017-04-12 00:04:00,1608E-3,5C000400,-0724,0836,11976,030.0,045.5,0.217,754.2,01.17,0.508
2017-04-12 00:05:00,1581E-3,5C000400,-0724,0836,12081,030.0,045.5,0.217,754.2,01.17,0.508
2017-04-12 00:06:00,1612E-3,5C000400,-0724,0836,12032,030.0,045.5,0.217,754.2,01.17,0.508
2017-04-12 00:07:00,1667E-3,5C000400,-0724,0836,11975,030.0,045.5,0.217,754.2,01.17,0.508
2017-04-12 00:08:00,1492E-3,5C000400,-0724,0837,12154,030.0,045.5,0.217,754.1,01.17,0.508
2017-04-12 00:09:00,1658E-3,5C000400,-0724,0836,12119,030.0,045.5,0.217,754.2,01.17,0.508
2017-04-12 00:10:00,1596E-3,5C000400,-0724,0836,12048,030.1,045.5,0.217,754.2,01.17,0.508
2017-04-12 00:11:00,1641E-3,5C000400,-0724,0838,12076,030.1,045.5,0.217,754.2,01.17,0.508
2017-04-12 00:12:00,1650E-3,5C000400,-0724,0837,12008,030.1,045.5,0.217,754.2,01.17,0.508
2017-04-12 00:13:00,1644E-3,5C000400,-0724,0837,12148,030.1,045.5,0.217,754.1,01.17,0.508
2017-04-12 00:14:00,1627E-3,5C000400,-0724,0836,12174,030.1,045.5,0.217,754.1,01.17,0.508
2017-04-12 00:15:00,1637E-3,5C000400,-0724,0836,11968,030.1,045.5,0.217,754.1,01.17,0.508
2017-04-12 00:16:00,1677E-3,5C000400,-0724,0837,12053,030.1,045.5,0.217,754.1,01.17,0.508
2017-04-12 00:17:00,1658E-3,5C000400,-0724,0836,12034,030.1,045.5,0.217,754.1,01.17,0.508
2017-04-12 00:18:00,1682E-3,5C000400,-0724,0836,12066,030.1,045.5,0.217,754.1,01.17,0.508
2017-04-12 00:19:00,1641E-3,5C000400,-0724,0836,12030,030.1,045.5,0.217,754.1,01.17,0.508
2017-04-12 00:20:00,1631E-3,5C000400,-0724,0836,12069,030.1,045.5,0.217,754.1,01.17,0.508
2017-04-12 00:21:00,1649E-3,5C000400,-0724,0836,12037,030.1,045.5,0.217,754.1,01.17,0.508
2017-04-12 00:22:00,1592E-3,5C000400,-0724,0837,11909,030.1,045.5,0.217,754.1,01.17,0.508
2017-04-12 00:23:00,1747E-3,5C000400,-0724,0837,12070,030.1,045.5,0.217,754.1,01.17,0.508
2017-04-12 00:24:00,1664E-3,5C000400,-0724,0836,12083,030.1,045.5,0.217,754.1,01.17,0.508
2017-04-12 00:25:00,1720E-3,5C000400,-0724,0837,12011,030.1,045.5,0.217,754.1,01.17,0.508
2017-04-12 00:26:00,1672E-3,5C000400,-0724,0836,12081,030.1,045.5,0.217,754.0,01.17,0.508
2017-04-12 00:27:00,1555E-3,5C000400,-0724,0837,12061,030.1,045.5,0.217,754.0,01.17,0.508
2017-04-12 00:28:00,1539E-3,5C000400,-0724,0836,12171,030.1,045.5,0.217,754.0,01.17,0.508
2017-04-12 00:29:00,1683E-3,5C000400,-0724,0836,12103,030.1,045.5,0.217,754.0,01.17,0.508
2017-04-12 00:30:00,1702E-3,5C000400,-0724,0836,11958,030.1,045.5,0.217,754.0,01.17,0.508
2017-04-12 00:31:00,1643E-3,5C000400,-0724,0837,12073,030.1,045.5,0.217,754.0,01.17,0.508
2017-04-12 00:32:00,1632E-3,5C000400,-0724,0837,12028,030.2,045.5,0.217,754.0,01.17,0.508
2017-04-12 00:33:00,1564E-3,5C000400,-0724,0837,12092,030.2,045.5,0.217,753.9,01.17,0.508
2017-04-12 00:34:00,1630E-3,5C000400,-0724,0837,12145,030.2,045.5,0.216,753.9,01.17,0.508
2017-04-12 00:35:00,1628E-3,5C000400,-0724,0836,12035,030.2,045.5,0.217,753.9,01.17,0.508
2017-04-12 00:36:00,1680E-3,5C000400,-0724,0836,12162,030.2,045.5,0.217,753.9,01.17,0.508
2017-04-12 00:37:00,1616E-3,5C000400,-0724,0837,12124,030.2,045.5,0.217,753.9,01.17,0.508
2017-04-12 00:38:00,1614E-3,5C000400,-0724,0837,12097,030.2,045.5,0.216,753.9,01.17,0.508
2017-04-12 00:39:00,1640E-3,5C000400,-0724,0836,12163,030.2,045.5,0.217,753.9,01.17,0.508
2017-04-12 00:40:00,1566E-3,5C000400,-0724,0837,11862,030.2,045.5,0.217,753.9,01.17,0.508
2017-04-12 00:41:00,1594E-3,5C000400,-0724,0836,12001,030.2,045.5,0.217,753.9,01.17,0.508
2017-04-12 00:42:00,1593E-3,5C000400,-0724,0837,12001,030.2,045.5,0.217,753.9,01.17,0.508
2017-04-12 00:43:00,1630E-3,5C000400,-0724,0837,12157,030.2,045.5,0.216,753.9,01.17,0.508
2017-04-12 00:44:00,1642E-3,5C000400,-0724,0837,12157,030.2,045.5,0.217,753.9,01.17,0.508
2017-04-12 00:45:00,1571E-3,5C000400,-0724,0837,12101,030.2,045.5,0.217,753.9,01.17,0.508
2017-04-12 00:46:00,1628E-3,5C000400,-0724,0837,12076,030.2,045.5,0.217,753.9,01.17,0.508
2017-04-12 00:47:00,1523E-3,5C000400,-0724,0836,12010,030.2,045.5,0.216,753.9,01.17,0.508
2017-04-12 00:48:00,1544E-3,5C000400,-0724,0837,12138,030.3,045.5,0.216,753.9,01.17,0.508
2017-04-12 00:49:00,1707E-3,5C000400,-0724,0836,12021,030.3,045.5,0.217,753.9,01.17,0.508
2017-04-12 00:50:00,1726E-3,5C000400,-0724,0837,12053,030.3,045.5,0.217,753.9,01.17,0.508
2017-04-12 00:51:00,1563E-3,5C000400,-0724,0837,12055,030.3,045.5,0.217,753.9,01.17,0.508
2017-04-12 00:52:00,1599E-3,5C000400,-0724,0836,12043,030.3,045.5,0.217,753.9,01.17,0.508
2017-04-12 00:53:00,1615E-3,5C000400,-0724,0836,12130,030.3,045.5,0.216,753.9,01.17,0.508
2017-04-12 00:54:00,1548E-3,5C000400,-0724,0836,12093,030.3,045.5,0.216,753.9,01.17,0.508
2017-04-12 00:55:00,1718E-3,5C000400,-0724,0837,12080,030.3,045.5,0.217,753.9,01.17,0.508
2017-04-12 00:56:00,1645E-3,5C000400,-0724,0837,12080,030.3,045.5,0.217,753.9,01.17,0.508
2017-04-12 00:57:00,1768E-3,5C000400,-0724,0837,12115,030.3,045.5,0.217,753.9,01.17,0.508
2017-04-12 00:58:00,1590E-3,5C000400,-0724,0836,12032,030.3,045.5,0.216,753.9,01.17,0.508
2017-04-12 00:59:00,1721E-3,5C000400,-0724,0836,12122,030.3,045.5,0.216,753.9,01.17,0.508
2017-04-12 01:00:00,1579E-3,5C000400,-0724,0836,12001,030.3,045.5,0.216,753.9,01.17,0.508
2017-04-12 01:01:00,1626E-3,5C000400,-0724,0836,11935,030.4,045.5,0.217,753.9,01.17,0.508
2017-04-12 01:02:00,1601E-3,5C000400,-0724,0837,12107,030.4,045.5,0.216,753.8,01.17,0.508
2017-04-12 01:03:00,1659E-3,5C000400,-0724,0836,12021,030.4,045.5,0.216,753.8,01.17,0.508
2017-04-12 01:04:00,1668E-3,5C000400,-0724,0836,12127,030.4,045.5,0.216,753.8,01.17,0.508
2017-04-12 01:05:00,1637E-3,5C000400,-0724,0836,12146,030.4,045.5,0.216,753.8,01.17,0.508
2017-04-12 01:06:00,1671E-3,5C000400,-0724,0836,12011,030.4,045.5,0.216,753.8,01.17,0.508
2017-04-12 01:07:00,1575E-3,5C000400,-0724,0837,12050,030.4,045.5,0.217,753.8,01.17,0.508
2017-04-12 01:08:00,1670E-3,5C000400,-0724,0836,12042,030.4,045.5,0.216,753.8,01.17,0.508
2017-04-12 01:09:00,1616E-3,5C000400,-0724,0836,12150,030.4,045.5,0.216,753.8,01.17,0.508
2017-04-12 01:10:00,1585E-3,5C000400,-0724,0836,11902,030.4,045.5,0.216,753.8,01.17,0.508
2017-04-12 01:11:00,1667E-3,5C000400,-0724,0836,12086,030.4,045.5,0.216,753.8,01.17,0.508
2017-04-12 01:12:00,1672E-3,5C000400,-0724,0836,11968,030.4,045.5,0.216,753.8,01.17,0.508
2017-04-12 01:13:00,1713E-3,5C000400,-0724,0838,12191,030.5,045.5,0.216,753.7,01.17,0.508
2017-04-12 01:14:00,1430E-3,5C000400,-0724,0837,12087,030.4,045.5,0.216,753.7,01.17,0.508
2017-04-12 01:15:00,1699E-3,5C000400,-0724,0836,11946,030.5,045.5,0.216,753.7,01.17,0.508
2017-04-12 01:16:00,1718E-3,5C000400,-0724,0836,12138,030.5,045.5,0.216,753.7,01.17,0.508
2017-04-12 01:17:00,1628E-3,5C000400,-0724,0836,12096,030.5,045.5,0.216,753.7,01.17,0.508
2017-04-12 01:18:00,1592E-3,5C000400,-0724,0837,12133,030.5,045.5,0.216,753.6,01.17,0.508
2017-04-12 01:19:00,1638E-3,5C000400,-0724,0836,11958,030.5,045.5,0.216,753.6,01.17,0.508
2017-04-12 01:20:00,1605E-3,5C000400,-0724,0836,12100,030.5,045.5,0.216,753.6,01.17,0.508
2017-04-12 01:21:00,1603E-3,5C000400,-0724,0837,12168,030.5,045.5,0.216,753.6,01.17,0.508
2017-04-12 01:22:00,1562E-3,5C000400,-0724,0836,11968,030.5,045.5,0.216,753.6,01.17,0.508
2017-04-12 01:23:00,1656E-3,5C000400,-0724,0836,12073,030.5,045.5,0.216,753.6,01.17,0.508
2017-04-12 01:24:00,1629E-3,5C000400,-0724,0837,12077,030.5,045.5,0.216,753.6,01.17,0.508
2017-04-12 01:25:00,1622E-3,5C000400,-0724,0836,11992,030.5,045.5,0.216,753.6,01.17,0.508
2017-04-12 01:26:00,1637E-3,5C000400,-0724,0837,11947,030.5,045.5,0.216,753.6,01.17,0.508
2017-04-12 01:27:00,1652E-3,5C000400,-0724,0836,12140,030.6,045.5,0.216,753.6,01.17,0.508
2017-04-12 01:28:00,1624E-3,5C000400,-0724,0836,12124,030.6,045.5,0.216,753.6,01.17,0.508
2017-04-12 01:29:00,1632E-3,5C000400,-0724,0837,12029,030.6,045.5,0.216,753.6,01.17,0.508
2017-04-12 01:30:00,1714E-3,5C000400,-0724,0836,11967,030.6,045.5,0.216,753.6,01.17,0.508
2017-04-12 01:31:00,1519E-3,5C000400,-0724,0837,12033,030.6,045.5,0.216,753.6,01.17,0.508
2017-04-12 01:32:00,1704E-3,5C000400,-0724,0836,12062,030.6,045.5,0.216,753.6,01.17,0.508
2017-04-12 01:33:00,1587E-3,5C000400,-0724,0837,11923,030.6,045.5,0.216,753.6,01.17,0.508
2017-04-12 01:34:00,1649E-3,5C000400,-0724,0837,12041,030.6,045.5,0.216,753.5,01.17,0.508
2017-04-12 01:35:00,1557E-3,5C000400,-0724,0836,12014,030.6,045.5,0.216,753.6,01.17,0.508
2017-04-12 01:36:00,1680E-3,5C000400,-0724,0837,12134,030.6,045.5,0.216,753.5,01.17,0.508
2017-04-12 01:37:00,1547E-3,5C000400,-0724,0837,11970,030.6,045.5,0.216,753.5,01.17,0.508
2017-04-12 01:38:00,1672E-3,5C000400,-0724,0836,12081,030.7,045.5,0.216,753.5,01.17,0.508
2017-04-12 01:39:00,1587E-3,5C000400,-0724,0836,12109,030.7,045.5,0.216,753.5,01.17,0.508
2017-04-12 01:40:00,1608E-3,5C000400,-0724,0836,12150,030.7,045.5,0.216,753.5,01.17,0.508
2017-04-12 01:41:00,1505E-3,5C000400,-0724,0838,12123,030.7,045.5,0.216,753.5,01.17,0.508
2017-04-12 01:42:00,1677E-3,5C000400,-0724,0837,12184,030.7,045.5,0.215,753.5,01.17,0.508
2017-04-12 01:43:00,1725E-3,5C000400,-0724,0837,12178,030.7,045.5,0.215,753.5,01.17,0.508
2017-04-12 01:44:00,1610E-3,5C000400,-0724,0837,12116,030.7,045.5,0.216,753.5,01.17,0.508
2017-04-12 01:45:00,1593E-3,5C000400,-0724,0837,12290,030.7,045.5,0.216,753.5,01.17,0.508
2017-04-12 01:46:00,1651E-3,5C000400,-0724,0836,12136,030.7,045.5,0.216,753.4,01.17,0.508
2017-04-12 01:47:00,1651E-3,5C000400,-0724,0837,11992,030.7,045.5,0.216,753.4,01.17,0.508
2017-04-12 01:48:00,1633E-3,5C000400,-0724,0836,12040,030.7,045.5,0.216,753.4,01.17,0.508
2017-04-12 01:49:00,1628E-3,5C000400,-0724,0837,12060,030.8,045.5,0.216,753.4,01.17,0.508
2017-04-12 01:50:00,1583E-3,5C000400,-0724,0837,12054,030.8,045.5,0.216,753.3,01.17,0.508
2017-04-12 01:51:00,1696E-3,5C000400,-0724,0837,12050,030.8,045.5,0.216,753.3,01.17,0.508
2017-04-12 01:52:00,1748E-3,5C000400,-0724,0837,12072,030.8,045.5,0.216,753.3,01.17,0.508
2017-04-12 01:53:00,1541E-3,5C000400,-0724,0837,12185,030.8,045.5,0.215,753.4,01.17,0.508
2017-04-12 01:54:00,1731E-3,5C000400,-0724,0837,12141,030.8,045.5,0.215,753.4,01.17,0.508
2017-04-12 01:55:00,1672E-3,5C000400,-0724,0836,12153,030.8,045.5,0.215,753.3,01.17,0.508
2017-04-12 01:56:00,1633E-3,5C000400,-0724,0837,12062,030.8,045.5,0.215,753.3,01.17,0.508
2017-04-12 01:57:00,1443E-3,5C000400,-0724,0837,12083,030.8,045.5,0.215,753.3,01.17,0.508
2017-04-12 01:58:00,1683E-3,5C000400,-0724,0837,12024,030.8,045.5,0.216,753.3,01.17,0.508
2017-04-12 01:59:00,1529E-3,5C000400,-0724,0837,12201,030.9,045.5,0.216,753.3,01.17,0.508
2017-04-12 02:00:00,1616E-3,5C000400,-0724,0837,12107,030.9,045.5,0.215,753.2,01.17,0.508
2017-04-12 02:01:00,1667E-3,5C000400,-0724,0837,12151,030.9,045.5,0.215,753.3,01.17,0.508
2017-04-12 02:02:00,1627E-3,5C000400,-0724,0837,12085,030.9,045.5,0.215,753.3,01.17,0.508
2017-04-12 02:03:00,1549E-3,5C000400,-0724,0837,12074,030.9,045.5,0.215,753.2,01.17,0.508
2017-04-12 02:04:00,1709E-3,5C000400,-0724,0837,11980,030.9,045.5,0.215,753.3,01.17,0.508
2017-04-12 02:05:00,1652E-3,5C000400,-0724,0837,11977,030.9,045.5,0.215,753.3,01.17,0.508
2017-04-12 02:06:00,1580E-3,5C000400,-0724,0836,12121,030.9,045.5,0.215,753.3,01.17,0.508
2017-04-12 02:07:00,1703E-3,5C000400,-0724,0837,12032,030.9,045.5,0.215,753.3,01.17,0.508
2017-04-12 02:08:00,1645E-3,5C000400,-0724,0837,12010,030.9,045.6,0.215,753.3,01.17,0.508
2017-04-12 02:09:00,1668E-3,5C000400,-0724,0837,12220,031.0,045.5,0.215,753.3,01.17,0.508
2017-04-12 02:10:00,1582E-3,5C000400,-0724,0837,11911,031.0,045.5,0.215,753.3,01.17,0.508
2017-04-12 02:11:00,1601E-3,5C000400,-0724,0836,11971,031.0,045.5,0.215,753.3,01.17,0.508
2017-04-12 02:12:00,1673E-3,5C000400,-0724,0837,12087,031.0,045.5,0.215,753.2,01.17,0.508
2017-04-12 02:13:00,1628E-3,5C000400,-0724,0837,11991,031.0,045.5,0.215,753.2,01.17,0.508
2017-04-12 02:14:00,1612E-3,5C000400,-0724,0836,12202,031.0,045.6,0.215,753.2,01.17,0.508
2017-04-12 02:15:00,1685E-3,5C000400,-0724,0838,11687,031.0,045.5,0.215,753.2,01.17,0.508
2017-04-12 02:16:00,1632E-3,5C000400,-0724,0837,12150,031.0,045.5,0.215,753.2,01.17,0.508
2017-04-12 02:17:00,1680E-3,5C000400,-0724,0837,12162,031.0,045.5,0.215,753.2,01.17,0.508
2017-04-12 02:18:00,1592E-3,5C000400,-0724,0837,11914,031.0,045.6,0.215,753.2,01.17,0.508
2017-04-12 02:19:00,1794E-3,5C000400,-0724,0836,12144,031.1,045.5,0.215,753.2,01.17,0.508
2017-04-12 02:20:00,1610E-3,5C000400,-0724,0837,11957,031.1,045.5,0.215,753.2,01.17,0.508
2017-04-12 02:21:00,1544E-3,5C000400,-0724,0836,12070,031.1,045.5,0.215,753.2,01.17,0.508
2017-04-12 02:22:00,1612E-3,5C000400,-0724,0836,12092,031.1,045.5,0.215,753.1,01.17,0.508
2017-04-12 02:23:00,1624E-3,5C000400,-0724,0837,12012,031.1,045.6,0.215,753.1,01.17,0.508
2017-04-12 02:24:00,1601E-3,5C000400,-0724,0836,12093,031.1,045.5,0.215,753.1,01.17,0.508
2017-04-12 02:25:00,1650E-3,5C000400,-0724,0836,12044,031.1,045.5,0.215,753.1,01.17,0.508
2017-04-12 02:26:00,1733E-3,5C000400,-0724,0836,11954,031.1,045.5,0.215,753.1,01.17,0.508
2017-04-12 02:27:00,1593E-3,5C000400,-0724,0837,12013,031.1,045.6,0.215,753.1,01.17,0.508
2017-04-12 02:28:00,1782E-3,5C000400,-0724,0837,11897,031.1,045.5,0.215,753.1,01.17,0.508
2017-04-12 02:29:00,1622E-3,5C000400,-0724,0836,12013,031.1,045.5,0.215,753.1,01.17,0.508
2017-04-12 02:30:00,1677E-3,5C000400,-0724,0836,12120,031.1,045.5,0.215,753.1,01.17,0.508
2017-04-12 02:31:00,1637E-3,5C000400,-0724,0837,12024,031.2,045.6,0.215,753.0,01.17,0.508
2017-04-12 02:32:00,1653E-3,5C000400,-0724,0837,12100,031.2,045.6,0.215,753.0,01.17,0.508
2017-04-12 02:33:00,1599E-3,5C000400,-0724,0837,12034,031.2,045.5,0.215,753.0,01.17,0.508
2017-04-12 02:34:00,1609E-3,5C000400,-0724,0836,12082,031.2,045.6,0.215,753.0,01.17,0.508
2017-04-12 02:35:00,1440E-3,5C000400,-0724,0837,12002,031.2,045.6,0.215,753.0,01.17,0.508
2017-04-12 02:36:00,1687E-3,5C000400,-0724,0837,12158,031.2,045.5,0.215,753.0,01.17,0.508
2017-04-12 02:37:00,1628E-3,5C000400,-0724,0837,12117,031.2,045.5,0.215,752.9,01.17,0.508
2017-04-12 02:38:00,1759E-3,5C000400,-0724,0837,12118,031.2,045.6,0.215,752.9,01.17,0.508
2017-04-12 02:39:00,1531E-3,5C000400,-0724,0837,12178,031.2,045.5,0.215,752.9,01.17,0.508
2017-04-12 02:40:00,1624E-3,5C000400,-0724,0837,11940,031.2,045.6,0.215,752.9,01.17,0.508
2017-04-12 02:41:00,1521E-3,5C000400,-0724,0837,11976,031.3,045.6,0.214,752.9,01.17,0.508
2017-04-12 02:42:00,1640E-3,5C000400,-0724,0837,12177,031.3,045.5,0.214,752.9,01.17,0.508
2017-04-12 02:43:00,1523E-3,5C000400,-0724,0837,12050,031.3,045.5,0.214,752.9,01.17,0.508
2017-04-12 02:44:00,1604E-3,5C000400,-0724,0838,12144,031.3,045.5,0.214,752.9,01.17,0.508
2017-04-12 02:45:00,1665E-3,5C000400,-0724,0837,12095,031.3,045.5,0.214,752.9,01.17,0.508
2017-04-12 02:46:00,1677E-3,5C000400,-0724,0837,12043,031.3,045.5,0.214,752.9,01.17,0.508
2017-04-12 02:47:00,1549E-3,5C000400,-0724,0837,11940,031.3,045.5,0.214,752.9,01.17,0.508
2017-04-12 02:48:00,1555E-3,5C000400,-0724,0837,12035,031.3,045.5,0.214,752.9,01.17,0.508
2017-04-12 02:49:00,1779E-3,5C000400,-0724,0837,12005,031.3,045.5,0.214,752.9,01.17,0.508
2017-04-12 02:50:00,1589E-3,5C000400,-0724,0837,12152,031.3,045.6,0.215,752.8,01.17,0.508
2017-04-12 02:51:00,1739E-3,5C000400,-0724,0837,12067,031.3,045.5,0.215,752.8,01.17,0.508
2017-04-12 02:52:00,1770E-3,5C000400,-0724,0837,12003,031.4,045.5,0.215,752.8,01.17,0.508
2017-04-12 02:53:00,1692E-3,5C000400,-0724,0838,12099,031.4,045.5,0.214,752.9,01.17,0.508
2017-04-12 02:54:00,1600E-3,5C000400,-0724,0837,12004,031.4,045.5,0.214,752.8,01.17,0.508
2017-04-12 02:55:00,1656E-3,5C000400,-0724,0836,12067,031.4,045.5,0.214,752.8,01.17,0.508
2017-04-12 02:56:00,1601E-3,5C000400,-0724,0837,11905,031.4,045.5,0.214,752.8,01.17,0.508
2017-04-12 02:57:00,1605E-3,5C000400,-0724,0837,12005,031.4,045.6,0.214,752.8,01.17,0.508
2017-04-12 02:58:00,1621E-3,5C000400,-0724,0838,12024,031.4,045.6,0.214,752.8,01.17,0.508
2017-04-12 02:59:00,1691E-3,5C000400,-0724,0837,12178,031.4,045.5,0.214,752.8,01.17,0.508
2017-04-12 03:00:00,1684E-3,5C000400,-0724,0837,11932,031.4,045.5,0.214,752.8,01.17,0.508
2017-04-12 03:01:00,1734E-3,5C000400,-0724,0838,12050,031.4,045.5,0.214,752.8,01.17,0.508
2017-04-12 03:02:00,1588E-3,5C000400,-0724,0837,12039,031.5,045.6,0.214,752.8,01.17,0.508
2017-04-12 03:03:00,1548E-3,5C000400,-0724,0838,11980,031.5,045.6,0.214,752.8,01.17,0.508
2017-04-12 03:04:00,1671E-3,5C000400,-0724,0838,11999,031.5,045.5,0.214,752.8,01.17,0.508
2017-04-12 03:05:00,1712E-3,5C000400,-0724,0837,12071,031.5,045.6,0.214,752.8,01.17,0.508
2017-04-12 03:06:00,1543E-3,5C000400,-0724,0837,11922,031.5,045.6,0.214,752.8,01.17,0.508
2017-04-12 03:07:00,1666E-3,5C000400,-0724,0838,12138,031.5,045.6,0.214,752.8,01.17,0.508
2017-04-12 03:08:00,1585E-3,5C000400,-0724,0837,12146,031.5,045.6,0.214,752.8,01.17,0.508
2017-04-12 03:09:00,1649E-3,5C000400,-0724,0837,12105,031.5,045.6,0.214,752.8,01.17,0.508
2017-04-12 03:10:00,1574E-3,5C000400,-0724,0837,12172,031.5,045.6,0.214,752.8,01.17,0.508
2017-04-12 03:11:00,1602E-3,5C000400,-0724,0837,12023,031.6,045.6,0.214,752.8,01.17,0.508
2017-04-12 03:12:00,1631E-3,5C000400,-0724,0836,12017,031.5,045.6,0.214,752.7,01.17,0.508
2017-04-12 03:13:00,1654E-3,5C000400,-0724,0837,12075,031.5,045.6,0.214,752.7,01.17,0.508
2017-04-12 03:14:00,1685E-3,5C000400,-0724,0838,12046,031.5,045.6,0.214,752.7,01.17,0.508
2017-04-12 03:15:00,1572E-3,5C000400,-0724,0838,12087,031.6,045.6,0.214,752.7,01.17,0.508
2017-04-12 03:16:00,1638E-3,5C000400,-0724,0836,11980,031.6,045.6,0.214,752.8,01.17,0.508
2017-04-12 03:17:00,1628E-3,5C000400,-0724,0838,12137,031.6,045.6,0.214,752.8,01.17,0.508
2017-04-12 03:18:00,1482E-3,5C000400,-0724,0837,12032,031.6,045.5,0.214,752.8,01.17,0.508
2017-04-12 03:19:00,1679E-3,5C000400,-0724,0837,12081,031.6,045.6,0.214,752.8,01.17,0.508
2017-04-12 03:20:00,1682E-3,5C000400,-0724,0837,12256,031.6,045.6,0.214,752.8,01.17,0.508
2017-04-12 03:21:00,1630E-3,5C000400,-0724,0838,12037,031.6,045.6,0.214,752.8,01.17,0.508
2017-04-12 03:22:00,1578E-3,5C000400,-0724,0838,12039,031.6,045.6,0.214,752.8,01.17,0.508
2017-04-12 03:23:00,1617E-3,5C000400,-0724,0837,12049,031.6,045.6,0.214,752.8,01.17,0.508
2017-04-12 03:24:00,1620E-3,5C000400,-0724,0837,12069,031.6,045.6,0.214,752.8,01.17,0.508
2017-04-12 03:25:00,1584E-3,5C000400,-0724,0838,12091,031.6,045.6,0.213,752.8,01.17,0.508
2017-04-12 03:26:00,1625E-3,5C000400,-0724,0837,11971,031.6,045.5,0.213,752.8,01.17,0.508
2017-04-12 03:27:00,1739E-3,5C000400,-0724,0837,12139,031.7,045.6,0.213,752.8,01.17,0.508
2017-04-12 03:28:00,1655E-3,5C000400,-0724,0837,11991,031.7,045.6,0.213,752.8,01.17,0.508
2017-04-12 03:29:00,1528E-3,5C000400,-0724,0837,11956,031.7,045.6,0.213,752.8,01.17,0.508
2017-04-12 03:30:00,1633E-3,5C000400,-0724,0837,12045,031.7,045.6,0.213,752.8,01.17,0.508
2017-04-12 03:31:00,1592E-3,5C000400,-0724,0837,11999,031.7,045.6,0.213,752.8,01.17,0.508
2017-04-12 03:32:00,1511E-3,5C000400,-0724,0837,12191,031.7,045.6,0.213,752.8,01.17,0.508
2017-04-12 03:33:00,1657E-3,5C000400,-0724,0838,12129,031.7,045.6,0.213,752.7,01.17,0.508
2017-04-12 03:34:00,1647E-3,5C000400,-0724,0837,12086,031.7,045.6,0.213,752.7,01.17,0.508
2017-04-12 03:35:00,1706E-3,5C000400,-0724,0837,11993,031.7,045.5,0.213,752.7,01.17,0.508
2017-04-12 03:36:00,1705E-3,5C000400,-0724,0837,12006,031.7,045.6,0.214,752.7,01.17,0.508
2017-04-12 03:37:00,1783E-3,5C000400,-0724,0837,12085,031.7,045.6,0.214,752.7,01.17,0.508
2017-04-12 03:38:00,1680E-3,5C000400,-0724,0838,12047,031.7,045.6,0.214,752.7,01.17,0.508
2017-04-12 03:39:00,1516E-3,5C000400,-0724,0838,12145,031.7,045.6,0.214,752.7,01.17,0.508
2017-04-12 03:40:00,1536E-3,5C000400,-0724,0836,12167,031.7,045.6,0.214,752.7,01.17,0.508
2017-04-12 03:41:00,1679E-3,5C000400,-0724,0836,12048,031.7,045.6,0.214,752.7,01.17,0.508
2017-04-12 03:42:00,1558E-3,5C000400,-0724,0837,12032,031.7,045.6,0.213,752.7,01.17,0.508
2017-04-12 03:43:00,1703E-3,5C000400,-0724,0837,12024,031.7,045.6,0.213,752.7,01.17,0.508
2017-04-12 03:44:00,1575E-3,5C000400,-0724,0837,11954,031.8,045.6,0.213,752.7,01.17,0.508
2017-04-12 03:45:00,1592E-3,5C000400,-0724,0838,12156,031.8,045.6,0.213,752.7,01.17,0.508
2017-04-12 03:46:00,1644E-3,5C000400,-0724,0837,12095,031.8,045.6,0.213,752.7,01.17,0.508
2017-04-12 03:47:00,1710E-3,5C000400,-0724,0837,12090,031.8,045.6,0.213,752.6,01.17,0.508
2017-04-12 03:48:00,1742E-3,5C000400,-0724,0837,12041,031.8,045.6,0.213,752.7,01.17,0.508
2017-04-12 03:49:00,1734E-3,5C000400,-0724,0837,11995,031.8,045.6,0.213,752.7,01.17,0.508
2017-04-12 03:50:00,1564E-3,5C000400,-0724,0837,12033,031.8,045.6,0.214,752.6,01.17,0.508
2017-04-12 03:51:00,1777E-3,5C000400,-0724,0837,12170,031.8,045.6,0.214,752.5,01.17,0.508
2017-04-12 03:52:00,1635E-3,5C000400,-0724,0837,12046,031.8,045.6,0.214,752.6,01.17,0.508
2017-04-12 03:53:00,1648E-3,5C000400,-0724,0838,12051,031.8,045.6,0.213,752.6,01.17,0.508
2017-04-12 03:54:00,1596E-3,5C000400,-0724,0837,11981,031.8,045.6,0.213,752.6,01.17,0.508
2017-04-12 03:55:00,1688E-3,5C000400,-0724,0838,12092,031.8,045.6,0.213,752.6,01.17,0.508
2017-04-12 03:56:00,1640E-3,5C000400,-0724,0837,12052,031.8,045.6,0.213,752.5,01.17,0.508
2017-04-12 03:57:00,1662E-3,5C000400,-0724,0837,12149,031.9,045.6,0.213,752.5,01.17,0.508
2017-04-12 03:58:00,1529E-3,5C000400,-0724,0837,12135,031.8,045.6,0.213,752.5,01.17,0.508
2017-04-12 03:59:00,1654E-3,5C000400,-0724,0837,12048,031.8,045.6,0.213,752.5,01.17,0.508
2017-04-12 04:00:00,1555E-3,5C000400,-0724,0837,12034,031.9,045.6,0.213,752.5,01.17,0.508
2017-04-12 04:01:00,1679E-3,5C000400,-0724,0837,12043,031.8,045.6,0.213,752.5,01.17,0.508
2017-04-12 04:02:00,1561E-3,5C000400,-0724,0837,11947,031.9,045.6,0.213,752.5,01.17,0.508
2017-04-12 04:03:00,1595E-3,5C000400,-0724,0838,12139,031.9,045.6,0.213,752.5,01.17,0.508
2017-04-12 04:04:00,1545E-3,5C000400,-0724,0837,12102,031.9,045.6,0.213,752.5,01.17,0.508
2017-04-12 04:05:00,1638E-3,5C000400,-0724,0837,12065,031.9,045.6,0.213,752.5,01.17,0.508
2017-04-12 04:06:00,1578E-3,5C000400,-0724,0838,12130,031.9,045.6,0.213,752.5,01.17,0.508
2017-04-12 04:07:00,1625E-3,5C000400,-0724,0838,12029,031.9,045.6,0.213,752.5,01.17,0.508
2017-04-12 04:08:00,1606E-3,5C000400,-0724,0838,12154,031.9,045.6,0.213,752.5,01.17,0.508
2017-04-12 04:09:00,1690E-3,5C000400,-0724,0838,12116,031.9,045.6,0.213,752.5,01.17,0.508
2017-04-12 04:10:00,1640E-3,5C000400,-0724,0837,12001,031.9,045.6,0.213,752.6,01.17,0.508
2017-04-12 04:11:00,1715E-3,5C000400,-0724,0837,12019,031.9,045.6,0.213,752.6,01.17,0.508
2017-04-12 04:12:00,1534E-3,5C000400,-0724,0837,12091,031.9,045.6,0.213,752.6,01.17,0.508
2017-04-12 04:13:00,1657E-3,5C000400,-0724,0837,12057,031.9,045.6,0.213,752.6,01.17,0.508
2017-04-12 04:14:00,1594E-3,5C000400,-0724,0838,12087,031.9,045.6,0.213,752.6,01.17,0.508
2017-04-12 04:15:00,1670E-3,5C000400,-0724,0838,11998,031.9,045.6,0.213,752.5,01.17,0.508
2017-04-12 04:16:00,1602E-3,5C000400,-0724,0838,12070,032.0,045.6,0.213,752.6,01.17,0.508
2017-04-12 04:17:00,1566E-3,5C000400,-0724,0837,12000,032.0,045.6,0.213,752.5,01.17,0.508
2017-04-12 04:18:00,1662E-3,5C000400,-0724,0837,12002,032.0,045.6,0.213,752.5,01.17,0.508
2017-04-12 04:19:00,1655E-3,5C000400,-0724,0837,12059,032.0,045.6,0.213,752.5,01.17,0.508
2017-04-12 04:20:00,1733E-3,5C000400,-0724,0838,12041,032.0,045.6,0.213,752.6,01.17,0.508